| time (UTC) | temp F | wind direction | speed MPH | gust MPH | rain 1hr in | rain 24hr in | rain mn in | humidity % | barometer mb |
| 20260902200002 | 81 | 202 | 11.0 | 19.0 | 0.00 | 0.13 | 0.07 | 38 | 1008.3 |
| 20260902194558 | 81 | 219 | 6.0 | 18.0 | 0.00 | 0.13 | 0.07 | 39 | 1008.4 |
| 20260902193105 | 81 | 235 | 9.0 | 17.0 | 0.00 | 0.13 | 0.07 | 39 | 1008.5 |
| 20260902191606 | 80 | 217 | 9.0 | 17.0 | 0.00 | 0.13 | 0.07 | 40 | 1008.8 |
| 20260902190050 | 80 | 217 | 8.0 | 18.0 | 0.00 | 0.13 | 0.07 | 40 | 1008.8 |
| 20260902184547 | 80 | 231 | 8.0 | 17.0 | 0.00 | 0.13 | 0.07 | 41 | 1009.0 |
| 20260902183049 | 79 | 252 | 7.0 | 18.0 | 0.00 | 0.13 | 0.07 | 42 | 1009.1 |
| 20260902181544 | 79 | 243 | 9.0 | 17.0 | 0.00 | 0.13 | 0.07 | 43 | 1009.4 |
| 20260902180037 | 79 | 188 | 7.0 | 14.0 | 0.00 | 0.13 | 0.07 | 43 | 1009.7 |
| 20260902174537 | 78 | 193 | 9.0 | 18.0 | 0.00 | 0.13 | 0.07 | 43 | 1009.7 |
| 20260902173033 | 78 | 225 | 7.0 | 14.0 | 0.00 | 0.13 | 0.07 | 44 | 1009.9 |
| 20260902171531 | 77 | 234 | 8.0 | 15.0 | 0.00 | 0.13 | 0.07 | 44 | 1010.0 |
| 20260902170026 | 77 | 231 | 8.0 | 14.0 | 0.00 | 0.13 | 0.07 | 45 | 1010.0 |
| 20260902164530 | 77 | 238 | 5.0 | 13.0 | 0.00 | 0.13 | 0.07 | 45 | 1009.8 |
| 20260902163020 | 77 | 236 | 6.0 | 13.0 | 0.00 | 0.13 | 0.07 | 46 | 1009.8 |
| 20260902161516 | 76 | 290 | 6.0 | 11.0 | 0.00 | 0.13 | 0.07 | 48 | 1009.8 |
| 20260902160014 | 74 | 224 | 5.0 | 13.0 | 0.00 | 0.13 | 0.07 | 49 | 1009.7 |
| 20260902154508 | 74 | 219 | 4.0 | 10.0 | 0.00 | 0.13 | 0.07 | 51 | 1009.4 |
| 20260902153014 | 73 | 218 | 5.0 | 14.0 | 0.00 | 0.13 | 0.07 | 53 | 1009.4 |
| 20260902151600 | 73 | 217 | 4.0 | 12.0 | 0.00 | 0.13 | 0.07 | 55 | 1009.3 |
| 20260902150055 | 72 | 225 | 6.0 | 13.0 | 0.00 | 0.13 | 0.07 | 58 | 1009.4 |
| 20260902144550 | 72 | 237 | 6.0 | 12.0 | 0.00 | 0.13 | 0.07 | 61 | 1009.4 |
| 20260902143146 | 71 | 217 | 5.0 | 10.0 | 0.00 | 0.13 | 0.07 | 63 | 1009.6 |
| 20260902141541 | 69 | 219 | 1.0 | 8.0 | 0.00 | 0.13 | 0.07 | 65 | 1009.6 |
| 20260902140038 | 67 | 229 | 2.0 | 11.0 | 0.00 | 0.13 | 0.07 | 66 | 1009.6 |
| 20260902134543 | 66 | 230 | 2.0 | 6.0 | 0.00 | 0.13 | 0.07 | 67 | 1009.4 |
| 20260902133034 | 66 | 209 | 0.0 | 4.0 | 0.00 | 0.13 | 0.07 | 67 | 1009.3 |
| 20260902131540 | 65 | 244 | 0.0 | 3.0 | 0.00 | 0.13 | 0.07 | 67 | 1009.2 |
| 20260902130029 | 64 | 261 | 0.0 | 1.0 | 0.00 | 0.13 | 0.07 | 67 | 1009.2 |
| 20260902124529 | 65 | 244 | 0.0 | 4.0 | 0.00 | 0.13 | 0.07 | 67 | 1009.0 |
| 20260902123029 | 65 | 221 | 1.0 | 6.0 | 0.00 | 0.13 | 0.07 | 66 | 1008.9 |
| 20260902121523 | 65 | 253 | 0.0 | 1.0 | 0.01 | 0.13 | 0.07 | 66 | 1008.8 |
| 20260902120022 | 65 | 243 | 0.0 | 4.0 | 0.01 | 0.13 | 0.07 | 66 | 1008.9 |
| 20260902114601 | 65 | 213 | 1.0 | 9.0 | 0.01 | 0.13 | 0.07 | 66 | 1008.8 |
| 20260902113017 | 66 | 217 | 0.0 | 5.0 | 0.01 | 0.13 | 0.07 | 66 | 1008.9 |
| 20260902111515 | 66 | 206 | 0.0 | 7.0 | 0.00 | 0.12 | 0.06 | 66 | 1008.9 |
| 20260902110014 | 66 | 187 | 0.0 | 2.0 | 0.00 | 0.12 | 0.06 | 66 | 1009.2 |
| 20260902104510 | 67 | 208 | 1.0 | 5.0 | 0.00 | 0.12 | 0.06 | 66 | 1009.0 |
| 20260902103007 | 66 | 220 | 0.0 | 4.0 | 0.00 | 0.12 | 0.06 | 67 | 1009.0 |
| 20260902101505 | 66 | 236 | 1.0 | 4.0 | 0.00 | 0.12 | 0.06 | 67 | 1009.1 |
| 20260902100101 | 66 | 232 | 0.0 | 2.0 | 0.00 | 0.12 | 0.06 | 67 | 1009.2 |
| 20260902094559 | 66 | 231 | 0.0 | 4.0 | 0.00 | 0.12 | 0.06 | 66 | 1009.4 |
| 20260902093101 | 65 | 229 | 0.0 | 1.0 | 0.00 | 0.12 | 0.06 | 66 | 1009.4 |
| 20260902091552 | 65 | 232 | 0.0 | 2.0 | 0.00 | 0.12 | 0.06 | 65 | 1009.4 |
| 20260902090049 | 65 | 212 | 0.0 | 1.0 | 0.02 | 0.12 | 0.06 | 64 | 1009.6 |
| 20260902084546 | 65 | 256 | 0.0 | 2.0 | 0.06 | 0.12 | 0.06 | 63 | 1009.6 |
| 20260902083042 | 64 | 293 | 0.0 | 2.0 | 0.06 | 0.12 | 0.06 | 61 | 1009.6 |
| 20260902081537 | 65 | 340 | 2.0 | 7.0 | 0.06 | 0.12 | 0.06 | 61 | 1009.8 |
| 20260902080033 | 69 | 247 | 1.0 | 7.0 | 0.02 | 0.08 | 0.02 | 61 | 1010.2 |
| 20260902074528 | 69 | 229 | 1.0 | 6.0 | 0.00 | 0.06 | 0.00 | 62 | 1009.8 |
| 20260902073023 | 68 | 236 | 1.0 | 3.0 | 0.00 | 0.06 | 0.00 | 62 | 1009.8 |
| 20260902071517 | 68 | 243 | 0.0 | 1.0 | 0.00 | 0.06 | 0.00 | 63 | 1009.7 |
| 20260902070019 | 67 | 243 | 0.0 | 1.0 | 0.00 | 0.06 | 0.06 | 63 | 1009.9 |
| 20260902064512 | 67 | 253 | 0.0 | 1.0 | 0.00 | 0.06 | 0.06 | 64 | 1010.0 |
| 20260902063010 | 66 | 244 | 0.0 | 1.0 | 0.00 | 0.06 | 0.06 | 64 | 1010.0 |
| 20260902061520 | 66 | 252 | 0.0 | 2.0 | 0.00 | 0.06 | 0.06 | 64 | 1010.1 |
| 20260902060004 | 66 | 240 | 0.0 | 1.0 | 0.00 | 0.06 | 0.06 | 65 | 1010.3 |
| 20260902054612 | 66 | 248 | 0.0 | 1.0 | 0.00 | 0.06 | 0.06 | 65 | 1010.3 |
| 20260902053105 | 66 | 236 | 0.0 | 1.0 | 0.00 | 0.06 | 0.06 | 66 | 1010.3 |
| 20260902051552 | 66 | 274 | 0.0 | 0.0 | 0.00 | 0.06 | 0.06 | 65 | 1010.4 |
| 20260902050055 | 65 | 293 | 0.0 | 1.0 | 0.00 | 0.06 | 0.06 | 64 | 1010.7 |
| 20260902044552 | 64 | 293 | 0.0 | 0.0 | 0.00 | 0.06 | 0.06 | 63 | 1010.3 |
| 20260902043048 | 64 | 323 | 0.0 | 0.0 | 0.00 | 0.06 | 0.06 | 62 | 1010.1 |
| 20260902041547 | 64 | 323 | 0.0 | 0.0 | 0.00 | 0.06 | 0.06 | 60 | 1010.0 |
| 20260902040049 | 64 | 323 | 0.0 | 0.0 | 0.04 | 0.06 | 0.06 | 57 | 1009.9 |
| 20260902034543 | 64 | 323 | 0.0 | 0.0 | 0.06 | 0.06 | 0.06 | 54 | 1009.8 |
| 20260902033040 | 64 | 323 | 0.0 | 0.0 | 0.06 | 0.06 | 0.06 | 50 | 1009.5 |
| 20260902031544 | 65 | 323 | 0.0 | 2.0 | 0.06 | 0.06 | 0.06 | 46 | 1009.3 |
| 20260902030035 | 69 | 247 | 5.0 | 16.0 | 0.02 | 0.02 | 0.02 | 44 | 1009.6 |
| 20260902024538 | 73 | 295 | 3.0 | 9.0 | 0.00 | 0.00 | 0.00 | 43 | 1008.9 |
| 20260902023034 | 73 | 195 | 4.0 | 11.0 | 0.00 | 0.00 | 0.00 | 42 | 1008.6 |
| 20260902021529 | 73 | 209 | 3.0 | 9.0 | 0.00 | 0.00 | 0.00 | 42 | 1008.6 |
| 20260902020027 | 74 | 250 | 2.0 | 9.0 | 0.00 | 0.00 | 0.00 | 41 | 1008.4 |
| 20260902014527 | 74 | 252 | 3.0 | 8.0 | 0.00 | 0.00 | 0.00 | 40 | 1008.4 |
| 20260902013023 | 75 | 226 | 2.0 | 11.0 | 0.00 | 0.00 | 0.00 | 39 | 1008.4 |
| 20260902011523 | 76 | 264 | 4.0 | 14.0 | 0.00 | 0.00 | 0.00 | 39 | 1008.5 |
| 20260902010018 | 76 | 265 | 3.0 | 10.0 | 0.00 | 0.00 | 0.00 | 38 | 1008.5 |
| 20260902004516 | 78 | 244 | 4.0 | 12.0 | 0.00 | 0.00 | 0.00 | 38 | 1008.6 |
| 20260902003013 | 78 | 217 | 4.0 | 14.0 | 0.00 | 0.00 | 0.00 | 38 | 1008.7 |
| 20260902001512 | 77 | 229 | 4.0 | 11.0 | 0.00 | 0.00 | 0.00 | 36 | 1008.9 |
| 20260902000013 | 77 | 244 | 4.0 | 13.0 | 0.00 | 0.00 | 0.00 | 35 | 1008.9 |
| 20260901234507 | 80 | 238 | 5.0 | 12.0 | 0.00 | 0.00 | 0.00 | 35 | 1008.9 |
| 20260901233006 | 81 | 250 | 7.0 | 15.0 | 0.00 | 0.00 | 0.00 | 35 | 1009.0 |
| 20260901231503 | 81 | 214 | 4.0 | 13.0 | 0.00 | 0.00 | 0.00 | 35 | 1009.0 |
| 20260901230002 | 79 | 200 | 6.0 | 12.0 | 0.00 | 0.00 | 0.00 | 34 | 1009.2 |
| 20260901224600 | 80 | 256 | 5.0 | 13.0 | 0.00 | 0.00 | 0.00 | 34 | 1009.0 |
| 20260901223056 | 82 | 238 | 7.0 | 12.0 | 0.00 | 0.00 | 0.00 | 34 | 1008.9 |
| 20260901221601 | 83 | 232 | 6.0 | 14.0 | 0.00 | 0.00 | 0.00 | 34 | 1009.1 |
| 20260901220056 | 83 | 248 | 6.0 | 13.0 | 0.00 | 0.00 | 0.00 | 35 | 1009.2 |
| 20260901214548 | 82 | 228 | 3.0 | 14.0 | 0.00 | 0.00 | 0.00 | 35 | 1009.2 |
| 20260901213045 | 81 | 278 | 9.0 | 15.0 | 0.00 | 0.00 | 0.00 | 35 | 1009.5 |
| 20260901211543 | 83 | 285 | 5.0 | 14.0 | 0.00 | 0.00 | 0.00 | 36 | 1009.6 |
| 20260901210039 | 83 | 207 | 4.0 | 19.0 | 0.00 | 0.00 | 0.00 | 37 | 1009.7 |
| 20260901204536 | 82 | 224 | 8.0 | 15.0 | 0.00 | 0.00 | 0.00 | 38 | 1009.8 |
| 20260901203032 | 82 | 239 | 9.0 | 19.0 | 0.00 | 0.00 | 0.00 | 39 | 1010.1 |
| 20260901201528 | 81 | 191 | 6.0 | 15.0 | 0.00 | 0.00 | 0.00 | 40 | 1010.1 |